User: anonymous   Login
Location: Newark
(43.4100°N, 74.9600°W)
Time: 20:56:27
(UTC+00:00)
Language:

LightSail 2 - Orbit

View from above orbital plane
View from above orbital plane
View from above satellite
View from above satellite

Ground track
Ground track

The orbit data is extracted from the following two-line orbital elements,

1 44420U 19036AC  19319.59746509  .00005226  00000-0  11736-2 0  9996
2 44420  24.0091  23.2087 0018019 327.6635  32.2702 14.53657058 18992
Epoch (UTC): 15 November 2019 14:20:20
Eccentricity: 0.0018019
inclination: 24.0091°
perigee height: 701 km
apogee height: 726 km
right ascension of ascending node: 23.2087°
argument of perigee: 327.6635°
revolutions per day: 14.53657058
mean anomaly at epoch: 32.2702°
orbit number at epoch: 1899

The dashed part of the orbit path shows where the satellite is in the earth's shadow,  

DLR